Location: Br�znic
(45.9167°N, 22.6500°E)
Time: 17:24:36
(UTC+00:00)

Cosmos 44 Rocket - Pass Details

Date: 03 March 2021
Orbit: 636 x 754 km, 65.1° (Epoch: 11 April)

Event Time Altitude Azimuth Distance (km) Brightness Sun altitude
Rises 16:40:33 0° 326° (NW) 3,208 7.2 -4.6°
Reaches altitude 10° 16:42:59 10° 330° (NNW) 2,285 6.3 -5.0°
Maximum altitude 16:48:11 60° 50° (NE) 862 3.6 -5.9°
Drops below altitude 10° 16:53:19 10° 131° (SE) 2,259 5.5 -6.8°
Sets 16:55:43 0° 135° (SE) 3,168 6.3 -7.2°
